Preview of NWS' New Version of Forecast
This preview is not operational and should not be used for support decisions.

Regional Weather Roundup (RWR)

Issued by National Weather Service (NWS)

                            
000
ASUS43 KBIS 192210
RWRND 

NORTH DAKOTA REGIONAL WEATHER ROUNDUP
NATIONAL WEATHER SERVICE BISMARCK ND
500 PM CDT WED JUN 19 2019

NOTE: "FAIR" INDICATES FEW OR NO CLOUDS BELOW 12,000 FEET WITH NO
SIGNIFICANT WEATHER AND/OR OBSTRUCTIONS TO VISIBILITY.


NDZ001>003-009>011-017-192300-
NORTHWEST NORTH DAKOTA
  
CITY           SKY/WX    TMP DP  RH WIND       PRES   REMARKS
WILLISTON      PTSUNNY   71  52  50 SE18G35   29.70R                  
MINOT          SUNNY     74  44  34 E16G28    29.74F                  
MINOT AFB      SUNNY     73  45  37 SE17G29   29.72F                  
$$
 
NDZ018>021-031>035-040>046-192300-
SOUTHWEST NORTH DAKOTA
  
CITY           SKY/WX    TMP DP  RH WIND       PRES   REMARKS
BISMARCK       CLOUDY    58  56  93 E12       29.78S                  
DICKINSON      CLOUDY    60  54  80 SE12      29.72F                  
GARRISON         N/A     64  53  67 SE14      29.75F                  
HETTINGER ARPT PTSUNNY   64  56  75 E9        29.72F                  
$$
 
NDZ004>008-012>016-024-026-027-054-192300-
NORTHEAST NORTH DAKOTA
  
CITY           SKY/WX    TMP DP  RH WIND       PRES   REMARKS
GRAND FORKS    CLOUDY    75  49  39 E8        29.76F                  
GRND FRKS AFB  PTSUNNY   75  47  37 S6        29.77F                  
DEVILS LAKE    PTSUNNY   70  48  45 SE9       29.80F                  
$$
 
NDZ022-023-025-028>030-036>039-047>053-192300-
SOUTHEAST NORTH DAKOTA
  
CITY           SKY/WX    TMP DP  RH WIND       PRES   REMARKS
FARGO          CLOUDY    73  48  41 S3        29.76F                  
JAMESTOWN      LGT RAIN  58  55  90 S6        29.81F                  
$$